Kosmos-1413

operational
NORAD ID: 13603 Int'l Des: 1982-100 Owner: GUKOS Country: SU Constellation: GLONASS
MEOCIRCULAR

About Kosmos-1413

Description loading...

Live Position

Loading 3D Globe...

Upcoming Passes

Altitude History

Altitude vs Time

uPlot chart will show altitude changes over time

Two-Line Element Set

1 13603U 82100A 26060.46855300 .00000028 00000-0 00000-0 0 9999
2 13603 64.8129 70.5834 0008185 22.2587 336.5087 2.13866677338866
Epoch: Mar 1, 2026 • Age: 56 hours

Current Status

Altitude 19051.3 km
Velocity 3.96 km/s
Sub-Earth Point -3.15°S, 146.93°E
Launch Date Oct 12, 1982
Age 43.3 years
Type other

Technical Details

Classification Payload
Mass 1300.00 kg
Dry Mass 1200.00 kg
Total Mass 1300.00 kg
Length 4.00 m
Diameter 1.50 m
Span 7.80 m
Shape Cyl + Ant + 2 Pan
Manufacturer OAZ
Bus Type Uragan
Phase Status In Orbit
Owner/State GUKOS/SU

Large Constellations

Loading constellations...